CAPE
nan nan nan nan nan nan nan nan nan nan nan nan nan nan nan nan nan nan nan nan nan nan nan nan nan nan nan nan nan nan nan nan nan nan nan nan nan nan 0 0 0 1 1 2 2 3 4 6 6 7 7 7 5 5 5 4 4 4 7 10 10 13 20 19 19 19 15 12 8 8 3 0 nan nan nan 0 4 4 9 14 14 16 21 28 28 46
nan nan nan nan nan nan nan nan nan nan nan nan nan nan nan nan nan nan nan nan nan nan nan nan nan nan nan nan nan nan nan nan nan nan nan nan 0 0 0 1 1 1 2 3 3 5 6 7 7 8 10 10 9 9 8 6 6 4 4 5 5 8 12 18 18 21 20 21 16 16 11 3 0 0 nan nan nan nan 1 6 6 11 14 20 20 32
nan nan nan nan nan nan nan nan nan nan nan nan nan nan nan nan nan nan nan nan nan nan nan nan nan nan nan nan nan nan nan nan nan nan 0 0 0 0 1 2 2 3 3 4 4 4 4 5 5 5 6 5 5 5 6 4 4 3 2 1 1 2 4 8 8 12 15 17 17 17 14 8 3 3 1 nan nan nan nan 0 0 4 9 12 12 19
0 1 nan nan nan nan nan nan nan nan nan nan nan nan nan nan nan nan nan nan nan nan nan nan nan nan nan nan nan nan nan nan 0 0 1 1 3 3 3 3 3 2 2 1 1 1 1 1 1 1 1 1 1 1 1 1 1 1 1 0 0 0 0 1 1 3 5 8 9 9 10 11 12 12 9 5 1 1 nan nan nan 1 3 6 6 9
1 0 nan nan nan nan nan nan nan nan nan nan nan nan nan nan nan nan nan nan nan nan nan nan nan nan nan nan nan nan nan 1 3 3 4 4 3 3 2 1 1 0 0 0 0 0 0 0 0 0 0 0 nan nan nan 0 0 0 0 0 0 nan nan 0 0 0 0 2 3 3 6 8 10 10 11 11 8 8 5 3 3 3 3 6 6 8
1 1 1 1 1 nan nan nan nan nan nan nan nan nan nan nan nan nan nan nan nan nan nan nan nan nan nan nan nan nan nan 3 4 4 4 3 2 2 0 0 0 nan nan 0 0 0 0 0 0 0 0 0 0 0 0 0 0 0 nan nan nan nan nan nan nan nan 0 0 1 1 2 2 4 4 5 8 10 10 12 12 12 9 6 8 8 9
3 3 3 2 2 2 nan nan nan nan nan nan nan nan nan nan nan nan nan nan nan nan nan nan nan nan nan nan nan nan 0 1 2 2 1 0 nan nan nan nan nan 0 0 0 0 0 0 0 0 0 0 1 0 0 0 0 0 0 nan nan nan nan nan 0 0 0 0 0 0 0 0 0 0 0 0 2 6 6 11 16 16 16 15 15 15 15
7 5 3 2 2 2 nan 0 nan nan nan nan nan nan nan nan nan nan nan nan nan nan nan nan nan nan nan nan nan nan nan nan nan nan nan nan nan nan nan 1 1 2 2 2 2 2 2 2 2 2 2 2 2 2 3 3 3 3 3 2 2 1 0 0 0 0 0 2 2 2 1 nan nan nan nan nan nan nan nan 4 4 12 20 25 25 29
10 6 3 2 2 2 nan nan nan nan nan nan nan nan nan nan nan nan nan nan nan nan nan nan nan nan nan nan nan nan nan nan nan nan nan nan nan nan nan 1 1 3 3 3 3 3 3 4 4 4 4 4 4 4 3 3 3 3 3 5 5 3 3 2 2 1 1 2 3 3 3 1 0 0 0 nan nan nan nan nan nan 5 15 25 25 35
9 7 5 3 3 1 nan nan nan nan nan nan nan nan nan nan nan nan nan nan nan nan nan nan nan nan nan nan nan nan nan nan 1 1 4 nan 3 3 0 nan nan nan 3 4 4 5 5 5 5 6 6 6 4 4 4 3 3 4 4 5 5 7 8 7 7 6 6 6 8 8 12 16 15 15 17 14 13 13 13 13 13 19 27 36 36 44
5 6 3 1 1 0 0 nan nan nan nan nan nan nan nan nan nan nan nan nan nan nan nan nan nan nan nan nan nan nan nan nan nan nan nan nan nan nan 0 nan nan 1 4 5 5 7 6 5 5 5 5 5 5 5 3 3 3 3 3 6 6 6 7 7 7 9 10 14 25 25 41 55 57 57 57 51 49 49 42 35 35 39 40 54 54 58
4 3 3 2 2 0 nan nan nan nan nan nan nan nan nan nan nan nan nan nan nan nan nan nan nan nan nan nan nan nan nan nan nan nan nan nan nan nan nan nan nan nan nan 1 1 2 5 5 5 4 3 2 3 3 2 1 1 2 2 3 3 3 4 3 3 6 8 16 33 33 59 81 72 72 76 70 54 54 38 29 29 21 25 40 40 61
5 3 2 1 1 2 nan nan nan nan nan nan nan nan nan nan nan nan nan nan nan nan nan nan nan nan nan nan nan nan nan nan nan nan nan nan nan nan nan nan nan nan nan nan nan nan nan 2 2 3 3 1 2 2 2 1 1 1 2 2 2 2 2 3 3 3 5 12 24 24 36 46 52 52 51 49 45 45 33 20 20 11 8 12 12 32
4 3 3 2 2 1 0 nan nan nan nan nan nan nan nan nan nan nan nan nan nan nan nan nan nan nan nan nan nan nan nan nan nan nan nan nan nan nan nan nan nan nan nan nan nan nan nan nan nan nan nan 0 0 0 0 1 1 2 3 3 3 3 4 5 5 4 6 6 10 10 12 21 28 28 31 34 34 34 28 20 20 13 7 5 5 9
4 4 2 0 0 1 1 0 0 0 nan nan nan nan 0 nan 1 1 0 nan nan nan nan nan nan nan nan nan nan nan nan nan nan nan nan nan nan nan nan nan nan nan nan nan nan nan nan nan nan nan nan nan nan nan nan 0 0 6 5 6 6 7 8 8 8 8 8 8 6 6 6 8 13 13 18 22 26 26 25 21 21 15 11 7 7 4
4 3 1 0 0 1 1 0 0 0 0 0 1 1 0 2 2 2 2 1 1 nan nan nan nan nan nan nan nan nan nan nan nan nan nan nan nan nan nan nan nan nan nan nan nan nan nan nan nan nan nan nan 4 4 5 6 6 10 9 9 9 10 10 10 10 11 12 12 10 10 8 6 7 7 10 13 19 19 22 23 23 19 12 8 8 4
3 2 1 0 0 1 1 2 3 3 2 2 2 2 2 2 2 2 2 0 0 nan nan nan nan nan nan nan nan nan nan nan nan nan nan nan nan nan nan nan nan nan nan nan nan nan nan nan nan nan nan 1 10 10 12 14 14 16 18 16 16 16 15 15 15 15 18 17 16 16 13 10 6 6 6 8 13 13 18 21 21 21 17 14 14 8
3 2 2 2 2 3 3 3 3 3 1 1 1 1 2 2 1 1 0 0 0 nan 0 nan nan nan nan nan nan nan nan nan nan nan nan nan nan nan nan nan nan nan nan nan nan nan nan nan nan nan nan 14 20 20 24 25 25 26 25 24 24 20 20 21 21 21 23 23 24 24 21 14 10 10 8 5 8 8 17 20 20 21 22 17 17 13
7 8 6 6 6 6 4 2 1 1 0 0 1 1 0 1 1 1 1 2 2 0 0 nan nan nan nan nan nan nan nan nan nan nan nan nan nan nan nan nan nan nan nan nan nan nan nan nan nan nan 10 24 28 28 32 35 35 34 31 30 30 27 26 26 26 26 28 29 30 30 27 22 17 17 13 12 10 10 14 20 20 25 29 23 23 14
14 11 8 6 6 3 1 nan 0 0 2 4 4 4 3 3 2 2 2 1 1 0 nan nan nan nan nan nan nan nan nan nan nan nan nan nan nan nan nan nan nan nan nan nan nan nan nan nan nan nan 10 22 33 33 39 41 41 44 41 38 38 35 31 32 32 33 34 35 35 35 34 27 23 23 19 18 17 17 19 23 23 29 33 31 31 22
10 4 2 2 2 1 2 1 2 2 7 13 8 8 8 5 2 2 0 nan nan nan nan nan nan nan nan nan nan nan nan nan 0 0 nan nan nan nan nan nan nan nan nan nan nan nan nan nan nan nan 2 24 36 36 44 46 46 49 48 45 45 42 39 38 38 39 39 40 40 40 38 31 27 27 23 22 21 21 23 26 26 32 38 42 42 32
6 4 2 1 1 3 5 3 8 8 16 19 7 7 8 4 2 2 0 nan nan nan 0 nan nan nan nan nan nan nan 0 1 1 1 2 0 nan nan nan nan nan nan nan nan nan nan nan nan nan nan 5 31 40 40 48 50 50 55 55 51 51 47 43 43 43 45 44 45 42 42 40 35 31 31 28 24 24 24 28 32 32 36 41 50 50 44
4 4 4 4 4 4 6 5 9 9 15 14 12 12 6 1 1 1 0 2 2 2 3 2 2 5 6 7 8 8 8 8 13 13 6 0 nan nan nan nan nan nan nan nan nan nan nan nan nan nan 8 36 41 41 48 52 52 56 55 54 54 52 49 49 49 50 50 50 46 46 45 42 34 34 31 28 29 29 30 36 36 42 46 54 54 56
4 4 3 4 4 4 5 4 4 4 5 5 3 3 4 3 5 5 8 11 11 12 14 14 14 16 17 14 10 10 6 5 5 5 2 0 nan nan nan nan nan nan nan nan nan nan nan nan nan nan 0 29 39 39 46 47 47 53 52 56 56 54 58 58 58 59 58 55 52 52 47 45 40 40 38 36 35 35 36 40 40 46 48 55 55 55
3 3 4 5 5 11 8 7 9 9 7 6 10 10 16 26 39 39 31 26 26 25 23 16 16 8 5 7 1 1 nan nan nan nan nan nan nan nan nan nan nan nan nan nan nan nan nan nan nan nan nan 9 35 35 43 47 47 52 54 54 54 57 61 63 63 63 65 61 56 56 50 50 47 47 44 43 39 39 41 43 43 49 52 54 54 54
12 12 10 18 18 35 42 50 49 49 41 20 15 15 19 31 34 34 29 20 20 15 11 4 4 3 1 0 nan nan nan nan nan nan nan nan nan nan nan nan nan nan nan nan nan nan nan nan nan nan nan 1 34 34 43 51 51 53 57 57 57 57 60 60 60 64 65 63 57 57 55 54 54 54 51 48 47 47 46 45 45 49 51 51 51 51
29 32 39 45 45 44 48 52 56 56 68 54 24 24 18 12 8 8 8 6 6 5 5 3 3 2 1 0 nan nan nan nan nan nan nan nan nan nan nan nan nan nan nan nan nan nan nan nan nan nan nan nan 12 12 45 52 52 60 61 63 63 62 63 63 63 65 67 65 58 58 60 59 60 60 59 54 49 49 49 48 48 50 55 49 49 47
30 35 38 42 42 44 46 53 54 54 53 54 56 56 31 6 3 3 4 4 4 3 1 2 2 3 1 nan nan nan nan nan nan nan nan nan nan nan nan nan nan nan nan nan nan nan 10 4 4 0 nan nan 1 1 29 58 58 66 69 71 71 73 75 77 77 79 80 73 68 68 66 65 65 65 62 55 53 53 49 49 49 51 51 40 40 18
36 39 43 44 44 42 42 40 40 40 40 39 39 39 24 3 2 2 4 3 3 3 5 6 6 3 1 nan nan nan nan nan nan nan nan nan nan nan nan nan nan nan nan nan nan nan nan nan nan nan nan nan nan nan 9 45 45 59 72 76 76 79 84 88 88 94 94 91 80 80 82 80 82 82 73 68 56 56 54 50 50 47 41 28 28 11
21 34 34 31 31 29 22 11 20 20 30 33 34 34 26 5 2 2 3 3 3 1 3 3 3 1 0 nan nan nan nan nan nan nan nan nan nan nan nan nan nan nan nan nan nan nan nan nan nan nan nan nan nan nan nan 8 8 16 35 74 74 80 90 93 93 93 95 101 102 102 104 105 100 100 93 77 72 72 64 56 56 45 19 9 9 5
3 2 1 1 1 1 nan nan 3 3 23 31 31 31 21 3 1 1 1 1 1 0 0 0 0 1 1 nan nan nan nan nan nan nan nan nan nan nan nan nan nan nan nan nan nan nan nan nan nan nan nan nan nan nan nan 1 1 7 6 20 20 40 77 87 87 92 96 107 119 119 134 139 132 132 122 108 92 92 81 74 74 49 11 5 5 2
nan 0 nan nan nan nan nan nan nan nan nan nan nan nan 7 8 6 6 1 1 1 0 nan 0 0 0 nan nan nan nan nan nan 0 0 nan nan nan nan nan nan nan nan nan nan nan nan nan 0 0 nan nan nan nan nan 1 6 6 3 7 16 16 16 56 74 74 81 83 110 126 126 132 148 169 169 179 170 163 163 153 135 135 112 58 28 28 26
2 1 0 nan nan nan nan nan nan nan nan nan 0 0 0 1 9 9 4 1 1 1 nan nan nan nan nan nan nan nan nan nan 2 2 3 nan nan nan nan nan nan nan nan nan nan nan nan nan nan nan nan nan 1 1 1 5 5 7 5 11 11 13 34 45 45 42 52 62 62 62 86 106 130 130 155 171 167 167 168 149 149 147 114 40 40 40
0 2 1 0 0 nan nan nan nan nan nan 0 1 1 1 0 0 0 3 2 2 1 0 nan nan nan nan nan nan nan nan nan 3 3 3 nan nan nan nan nan nan nan nan nan nan nan nan nan nan nan nan 0 0 0 0 1 1 2 0 6 6 9 13 27 27 36 33 34 17 17 20 19 50 50 82 109 125 125 135 135 135 138 125 62 62 44
0 1 1 0 0 0 0 0 nan nan 1 1 0 0 1 nan nan nan 1 1 1 0 nan nan nan nan nan nan nan nan nan nan 0 0 9 nan nan nan nan nan nan nan nan nan nan nan nan 1 1 6 2 0 0 0 0 nan nan 1 0 4 4 5 6 10 10 27 36 32 20 20 10 4 4 4 14 45 77 77 95 111 111 113 116 109 109 95
0 1 1 1 1 1 0 1 1 1 1 0 nan nan nan nan nan nan nan nan nan 0 2 nan nan nan nan nan nan nan nan nan nan nan 6 nan nan nan nan nan nan nan nan nan nan nan nan nan nan 6 9 2 1 1 1 0 0 1 1 3 3 3 3 9 9 23 37 52 49 49 42 26 18 18 14 57 68 68 82 91 91 95 110 132 132 148
0 1 1 1 1 1 2 0 nan nan 0 0 nan nan nan nan nan nan nan nan nan nan nan nan nan nan 2 nan nan nan nan nan nan nan nan nan nan nan nan nan nan nan nan nan nan nan nan nan nan 3 2 1 0 0 0 0 0 0 nan 2 2 3 0 8 8 26 34 62 77 77 85 81 64 64 57 71 64 64 74 86 86 87 115 145 145 176
1 1 1 1 1 0 0 0 0 0 1 0 nan nan nan nan nan nan nan nan nan nan nan nan nan nan 5 13 0 0 nan nan nan nan nan nan nan nan nan nan nan nan nan nan nan nan nan nan nan 0 2 1 9 9 7 2 2 0 0 0 0 nan nan nan nan 6 17 31 49 49 71 84 85 85 84 74 43 43 16 2 2 44 91 121 121 166
1 0 1 2 2 1 0 0 nan nan 0 nan nan nan nan nan nan nan nan nan nan nan nan nan nan nan nan nan 8 8 6 nan nan nan nan nan nan nan nan nan nan nan nan nan nan nan nan 0 0 1 3 2 3 3 1 0 0 0 nan nan nan nan nan nan nan 2 6 12 32 32 33 34 58 58 77 77 67 67 35 6 6 19 29 57 57 131
1 0 2 4 4 1 0 0 nan nan nan nan 1 1 nan nan nan nan nan nan nan nan nan nan nan nan nan nan nan nan nan nan nan nan nan nan nan nan nan nan nan nan nan nan nan 0 0 2 2 4 9 3 2 2 1 0 0 1 9 3 3 1 1 0 0 nan nan nan 6 6 10 11 30 30 52 62 71 71 54 27 27 15 22 27 27 52
2 1 2 1 1 2 2 0 nan nan nan nan nan nan nan nan nan nan nan nan nan nan nan nan nan nan nan nan nan nan nan nan nan nan nan nan nan nan nan nan nan nan 0 2 2 2 4 4 4 6 7 6 12 12 10 6 6 22 35 9 9 4 3 3 3 nan nan nan nan nan 6 10 15 15 24 34 30 30 37 27 27 14 18 7 7 14
7 3 1 0 0 nan nan nan 0 0 nan nan nan nan nan nan nan nan nan nan nan nan nan nan nan nan nan nan nan nan nan nan nan nan nan nan nan nan nan nan nan nan 0 1 1 4 9 11 11 10 11 9 11 11 7 7 7 19 27 14 14 8 10 10 10 nan nan nan nan nan 1 5 8 8 16 18 21 21 35 29 29 38 43 24 24 21
1 1 0 nan nan 0 0 1 1 1 nan nan nan nan nan nan nan nan nan nan nan nan nan nan nan nan nan nan nan nan nan nan nan nan nan nan nan nan nan nan nan nan nan nan nan 4 11 23 23 9 10 10 9 9 11 14 14 13 18 21 21 16 8 4 4 nan nan nan nan nan nan nan 2 2 8 17 24 24 37 72 72 105 101 71 71 58
1 1 0 nan nan 0 1 1 nan nan nan nan nan nan nan nan nan nan nan nan nan nan nan nan nan nan nan nan nan nan nan nan nan nan nan nan nan nan nan nan nan nan nan nan nan 5 8 15 15 11 12 8 10 10 14 15 15 13 10 17 17 16 9 5 5 1 nan nan nan nan nan nan nan nan 3 10 15 15 23 40 40 47 77 61 61 42
0 0 0 nan nan 0 nan nan nan nan nan nan nan nan nan nan nan nan nan nan nan nan nan nan nan nan nan nan nan nan nan nan nan nan nan nan 20 20 nan nan nan nan nan 1 1 4 7 8 8 11 11 11 12 12 17 14 14 18 25 29 29 21 12 7 7 5 3 nan nan nan nan nan nan nan 0 2 4 4 6 7 7 9 9 16 16 17
0 1 1 0 0 nan 0 nan nan nan nan nan nan nan nan nan nan nan nan nan nan nan nan nan nan nan nan nan nan nan nan nan nan nan nan nan nan nan nan nan nan nan nan 1 1 3 3 4 4 9 8 11 12 12 9 13 13 16 21 35 35 26 18 10 10 4 3 0 nan nan nan nan nan nan nan nan 0 0 0 1 1 2 1 2 2 3
1 1 1 0 0 nan nan nan nan nan nan nan nan nan nan nan nan nan nan nan nan nan nan nan nan nan nan nan nan nan nan nan nan nan nan nan nan nan nan nan nan nan nan nan nan 0 5 6 6 8 7 8 12 12 9 11 11 16 19 24 24 21 19 13 13 5 1 0 nan nan nan nan nan nan nan nan nan nan nan 0 0 0 1 1 1 1
2 2 0 nan nan nan nan nan nan nan nan nan nan nan nan nan nan nan nan nan nan nan nan nan nan nan nan nan nan nan nan nan nan nan nan nan nan nan nan nan nan nan 1 7 7 14 10 8 8 8 5 8 13 13 12 11 11 13 16 19 19 20 17 17 17 4 0 nan nan nan nan nan nan nan nan nan nan nan 0 1 1 2 2 1 1 0
2 1 0 nan nan nan nan nan nan nan nan nan nan nan nan nan 10 10 nan nan nan nan nan nan nan nan nan nan nan nan nan nan nan nan nan nan nan nan nan nan nan nan nan 0 0 2 8 14 14 14 9 10 12 12 11 8 8 7 10 10 10 12 14 13 13 3 nan nan nan nan nan nan nan nan nan 1 3 3 3 3 3 2 1 nan nan nan
1 1 nan nan nan nan nan nan nan nan nan nan nan nan nan nan nan nan nan nan nan nan nan nan nan nan nan nan nan nan nan nan nan nan nan nan nan nan nan nan nan nan nan nan nan nan nan 2 2 16 35 34 19 19 11 11 11 8 8 7 7 7 6 3 3 0 nan nan nan nan nan nan nan nan nan 4 8 8 7 5 5 3 0 nan nan nan
3 0 nan nan nan nan nan nan nan nan nan nan nan nan nan nan nan nan nan nan nan nan nan nan nan nan nan nan nan nan nan nan nan nan nan nan nan nan nan nan nan nan nan nan nan nan nan nan nan nan 19 60 49 49 23 15 15 18 16 7 7 2 1 0 0 0 0 nan nan nan nan nan nan nan 3 8 12 12 10 6 6 2 nan nan nan nan
CIN
nan nan nan nan nan nan nan nan nan nan nan nan nan nan nan nan nan nan nan nan nan nan nan nan nan nan nan nan nan nan nan nan nan nan nan nan nan nan -0 -0 -0 -0 -0 -0 -0 -0 -0 -0 -0 -0 -0 -0 -0 -0 -0 -0 -0 -0 -0 -0 -0 -0 -0 -0 -0 -0 -0 -0 -0 -0 -0 -0 nan nan nan -4 -4 -4 -3 -2 -2 -5 -8 -7 -7 -2
nan nan nan nan nan nan nan nan nan nan nan nan nan nan nan nan nan nan nan nan nan nan nan nan nan nan nan nan nan nan nan nan nan nan nan nan -0 -0 -0 -0 -0 -0 -0 -0 -0 -0 -0 -0 -0 -0 -0 -0 -0 -0 -0 -0 -0 -0 -0 -0 -0 -0 -0 -0 -0 -0 -0 -0 -0 -0 -0 -0 -0 -0 nan nan nan nan -0 -0 -0 -0 -0 -0 -0 -0
nan nan nan nan nan nan nan nan nan nan nan nan nan nan nan nan nan nan nan nan nan nan nan nan nan nan nan nan nan nan nan nan nan nan -0 -0 -0 -0 -0 -0 -0 -0 -0 -0 -0 -0 -0 -0 -0 -0 -0 -0 -0 -0 -0 -0 -0 -0 -0 -0 -0 -0 -0 -0 -0 -0 -0 -0 -0 -0 -0 -0 -0 -0 -0 nan nan nan nan -1 -1 -0 -0 -0 -0 -0
-7 -0 nan nan nan nan nan nan nan nan nan nan nan nan nan nan nan nan nan nan nan nan nan nan nan nan nan nan nan nan nan nan -0 -0 -0 -0 -0 -0 -0 -0 -0 -0 -0 -0 -0 -0 -0 -0 -0 -0 -0 -0 -0 -0 -0 -0 -0 -0 -0 -0 -0 -0 -0 -0 -0 -0 -0 -0 -0 -0 -1 -0 -0 -0 -0 -0 -0 -0 nan nan nan -0 -0 -0 -0 -0
-2 -1 nan nan nan nan nan nan nan nan nan nan nan nan nan nan nan nan nan nan nan nan nan nan nan nan nan nan nan nan nan -0 -0 -0 -0 -0 -0 -0 -0 -0 -0 -0 -0 -0 -0 -0 -0 -0 -0 -0 -0 -0 nan nan nan -0 -0 -0 -0 -0 -0 nan nan -0 -0 -0 -0 -0 -0 -0 -0 -0 -0 -0 -0 -0 -0 -0 -0 -0 -0 -0 -0 -0 -0 -0
-1 -2 -5 -3 -3 nan nan nan nan nan nan nan nan nan nan nan nan nan nan nan nan nan nan nan nan nan nan nan nan nan nan -0 -0 -0 -0 -0 -0 -0 -0 -0 -0 nan nan -0 -0 -0 -0 -0 -0 -0 -0 -0 -0 -0 -0 -0 -0 -0 nan nan nan nan nan nan nan nan -0 -0 -0 -0 -0 -0 -0 -0 -0 -0 -0 -0 -0 -0 -0 -0 -0 -0 -0 -0
-1 -0 -1 -3 -3 -1 nan nan nan nan nan nan nan nan nan nan nan nan nan nan nan nan nan nan nan nan nan nan nan nan -0 -0 -0 -0 -0 -0 nan nan nan nan nan -0 -0 -0 -0 -0 -0 -0 -0 -0 -0 -0 -0 -0 -0 -0 -0 -0 nan nan nan nan nan -0 -0 -0 -0 -0 -0 -0 -0 -0 -0 -0 -0 -0 -0 -0 -0 -0 -0 -0 -0 -0 -0 -0
-2 -4 -5 -5 -5 -9 nan -13 nan nan nan nan nan nan nan nan nan nan nan nan nan nan nan nan nan nan nan nan nan nan nan nan nan nan nan nan nan nan nan -0 -0 -0 -0 -0 -0 -0 -0 -0 -0 -0 -0 -0 -0 -0 -0 -0 -0 -0 -0 -0 -0 -0 -0 -0 -0 -0 -0 -0 -0 -0 -1 nan nan nan nan nan nan nan nan -0 -0 -0 -0 -0 -0 -0
-5 -4 -4 -8 -8 -7 nan nan nan nan nan nan nan nan nan nan nan nan nan nan nan nan nan nan nan nan nan nan nan nan nan nan nan nan nan nan nan nan nan -0 -0 -0 -0 -0 -0 -0 -0 -0 -0 -0 -0 -0 -0 -0 -0 -0 -0 -0 -0 -0 -0 -0 -0 -0 -0 -0 -0 -0 -0 -0 -2 -6 -10 -10 -10 nan nan nan nan nan nan -0 -0 -0 -0 -0
-8 -8 -7 -8 -8 -11 nan nan nan nan nan nan nan nan nan nan nan nan nan nan nan nan nan nan nan nan nan nan nan nan nan nan -0 -0 -0 nan -0 -0 -1 nan nan nan -0 -0 -0 -0 -0 -0 -0 -0 -0 -0 -0 -0 -0 -0 -0 -0 -1 -2 -2 -2 -1 -0 -0 -0 -0 -0 -0 -0 -1 -3 -5 -5 -7 -9 -9 -9 -10 -9 -9 -3 -0 -0 -0 -0
-5 -9 -10 -14 -14 -16 -13 nan nan nan nan nan nan nan nan nan nan nan nan nan nan nan nan nan nan nan nan nan nan nan nan nan nan nan nan nan nan nan -1 nan nan -0 -0 -0 -0 -0 -0 -0 -0 -0 -0 -0 -0 -0 -0 -0 -0 -1 -2 -2 -2 -1 -0 -0 -0 -0 -0 -0 -0 -0 -1 -1 -1 -1 -2 -1 -2 -2 -3 -2 -2 -1 -0 -0 -0 -0
-4 -7 -8 -9 -9 -14 nan nan nan nan nan nan nan nan nan nan nan nan nan nan nan nan nan nan nan nan nan nan nan nan nan nan nan nan nan nan nan nan nan nan nan nan nan -6 -6 -1 -0 -0 -0 -0 -0 -0 -0 -0 -0 -0 -0 -0 -0 -0 -0 -0 -0 -0 -0 -0 -0 -0 -0 -0 -0 -0 -0 -0 -0 -0 -0 -0 -1 -1 -1 -0 -0 -0 -0 -0
-6 -9 -9 -10 -10 -9 nan nan nan nan nan nan nan nan nan nan nan nan nan nan nan nan nan nan nan nan nan nan nan nan nan nan nan nan nan nan nan nan nan nan nan nan nan nan nan nan nan -1 -1 -0 -0 -0 -0 -0 -0 -0 -0 -0 -0 -0 -0 -0 -0 -0 -0 -0 -0 -0 -0 -0 -0 -0 -0 -0 -0 -0 -0 -0 -2 -4 -4 -5 -5 -2 -2 -0
-6 -8 -7 -7 -7 -8 -14 nan nan nan nan nan nan nan nan nan nan nan nan nan nan nan nan nan nan nan nan nan nan nan nan nan nan nan nan nan nan nan nan nan nan nan nan nan nan nan nan nan nan nan nan -5 -2 -2 -6 -1 -1 -0 -0 -0 -0 -0 -0 -0 -0 -0 -0 -0 -0 -0 -0 -0 -0 -0 -0 -0 -0 -0 -1 -3 -3 -5 -6 -6 -6 -3
-6 -6 -6 -6 -6 -6 -9 -16 -13 -13 nan nan nan nan -22 nan -13 -13 -12 nan nan nan nan nan nan nan nan nan nan nan nan nan nan nan nan nan nan nan nan nan nan nan nan nan nan nan nan nan nan nan nan nan nan nan nan -6 -6 -0 -0 -0 -0 -0 -0 -0 -0 -0 -0 -0 -0 -0 -1 -1 -0 -0 -0 -0 -0 -0 -0 -1 -1 -4 -5 -6 -6 -4
-6 -6 -6 -8 -8 -8 -12 -13 -13 -13 -16 -16 -18 -18 -14 -10 -12 -12 -11 -11 -11 nan nan nan nan nan nan nan nan nan nan nan nan nan nan nan nan nan nan nan nan nan nan nan nan nan nan nan nan nan nan nan -2 -2 -0 -0 -0 -0 -0 -0 -0 -0 -0 -0 -0 -0 -0 -0 -0 -0 -0 -0 -1 -1 -0 -0 -0 -0 -0 -0 -0 -2 -4 -6 -6 -5
-7 -7 -9 -9 -9 -8 -13 -15 -13 -13 -13 -14 -14 -14 -13 -14 -13 -13 -11 -13 -13 nan nan nan nan nan nan nan nan nan nan nan nan nan nan nan nan nan nan nan nan nan nan nan nan nan nan nan nan nan nan -13 -0 -0 -0 -0 -0 -0 -0 -0 -0 -0 -0 -0 -0 -0 -0 -0 -0 -0 -0 -0 -0 -0 -0 -0 -0 -0 -0 -0 -0 -0 -2 -5 -5 -6
-8 -9 -7 -7 -7 -7 -11 -13 -13 -13 -14 -12 -12 -12 -14 -15 -15 -15 -13 -12 -12 nan -10 nan nan nan nan nan nan nan nan nan nan nan nan nan nan nan nan nan nan nan nan nan nan nan nan nan nan nan nan -0 -0 -0 -0 -0 -0 -0 -0 -0 -0 -0 -0 -0 -0 -0 -0 -0 -0 -0 -0 -0 -0 -0 -0 -0 -0 -0 -0 -0 -0 -0 -0 -2 -2 -5
-5 -6 -6 -4 -4 -6 -9 -10 -11 -11 -10 -10 -9 -9 -11 -10 -12 -12 -11 -9 -9 -9 -10 nan nan nan nan nan nan nan nan nan nan nan nan nan nan nan nan nan nan nan nan nan nan nan nan nan nan nan -2 -0 -0 -0 -0 -0 -0 -0 -0 -0 -0 -0 -0 -0 -0 -0 -0 -0 -0 -0 -0 -0 -0 -0 -0 -0 -0 -0 -0 -0 -0 -0 -0 -0 -0 -3
-2 -3 -5 -4 -4 -6 -7 nan -5 -5 -5 -6 -8 -8 -8 -9 -8 -8 -9 -10 -10 -12 nan nan nan nan nan nan nan nan nan nan nan nan nan nan nan nan nan nan nan nan nan nan nan nan nan nan nan nan -10 -0 -0 -0 -0 -0 -0 -0 -0 -0 -0 -0 -0 -0 -0 -0 -0 -0 -0 -0 -0 -0 -0 -0 -0 -0 -0 -0 -0 -0 -0 -0 -0 -0 -0 -1
-2 -3 -7 -9 -9 -6 -3 -5 -6 -6 -3 -6 -8 -8 -5 -6 -8 -8 -10 nan nan nan nan nan nan nan nan nan nan nan nan nan -13 -13 nan nan nan nan nan nan nan nan nan nan nan nan nan nan nan nan -32 -0 -0 -0 -0 -0 -0 -0 -0 -0 -0 -0 -0 -0 -0 -0 -0 -0 -0 -0 -0 -0 -0 -0 -0 -0 -0 -0 -0 -0 -0 -0 -0 -0 -0 -0
-3 -3 -7 -11 -11 -5 -2 -8 -5 -5 -3 -6 -6 -6 -4 -6 -8 -8 -12 nan nan nan -11 nan nan nan nan nan nan nan -35 -24 -11 -11 -10 -10 nan nan nan nan nan nan nan nan nan nan nan nan nan nan -24 -0 -0 -0 -0 -0 -0 -0 -0 -0 -0 -0 -0 -0 -0 -0 -0 -0 -0 -0 -0 -0 -0 -0 -0 -0 -0 -0 -0 -0 -0 -0 -0 -0 -0 -0
-6 -4 -8 -10 -10 -8 -6 -11 -10 -10 -6 -6 -2 -2 -6 -11 -11 -11 -13 -10 -10 -11 -11 -16 -16 -20 -21 -19 -19 -19 -22 -18 -5 -5 -3 -6 nan nan nan nan nan nan nan nan nan nan nan nan nan nan -20 -0 -0 -0 -0 -0 -0 -0 -0 -0 -0 -0 -0 -0 -0 -0 -0 -0 -0 -0 -0 -0 -0 -0 -0 -0 -0 -0 -0 -0 -0 -0 -0 -0 -0 -0
-10 -10 -12 -12 -12 -15 -15 -14 -16 -16 -14 -14 -17 -17 -15 -14 -11 -11 -8 -7 -7 -8 -10 -11 -11 -10 -11 -14 -17 -17 -23 -27 -25 -25 -11 -8 nan nan nan nan nan nan nan nan nan nan nan nan nan nan -41 -0 -0 -0 -0 -0 -0 -0 -0 -0 -0 -0 -0 -0 -0 -0 -0 -0 -0 -0 -0 -0 -0 -0 -0 -0 -0 -0 -0 -0 -0 -0 -0 -0 -0 -0
-13 -14 -13 -14 -14 -12 -13 -14 -10 -10 -14 -19 -15 -15 -8 -4 -2 -2 -3 -3 -3 -3 -3 -4 -4 -5 -10 -5 -15 -15 nan nan nan nan nan nan nan nan nan nan nan nan nan nan nan nan nan nan nan nan nan -12 -0 -0 -0 -0 -0 -0 -0 -0 -0 -0 -0 -0 -0 -0 -0 -0 -0 -0 -0 -0 -0 -0 -0 -0 -0 -0 -0 -0 -0 -0 -0 -1 -1 -3
-0 -3 -4 -1 -1 -0 -0 -0 -0 -0 -0 -7 -12 -12 -11 -6 -3 -3 -3 -4 -4 -5 -6 -7 -7 -7 -10 -12 nan nan nan nan nan nan nan nan nan nan nan nan nan nan nan nan nan nan nan nan nan nan nan -33 -0 -0 -0 -0 -0 -0 -0 -0 -0 -0 -0 -0 -0 -0 -0 -0 -0 -0 -0 -0 -0 -0 -0 -0 -0 -0 -0 -0 -0 -0 -0 -3 -3 -6
-0 -0 -0 -0 -0 -0 -0 -0 -0 -0 -0 -0 -3 -3 -11 -13 -9 -9 -5 -7 -7 -7 -6 -6 -6 -7 -9 -12 nan nan nan nan nan nan nan nan nan nan nan nan nan nan nan nan nan nan nan nan nan nan nan nan -16 -16 -0 -0 -0 -0 -0 -0 -0 -0 -0 -0 -0 -0 -0 -0 -0 -0 -0 -0 -0 -0 -0 -0 -0 -0 -0 -0 -0 -0 -1 -5 -5 -8
-0 -0 -0 -0 -0 -0 -0 -0 -0 -0 -0 -0 -0 -0 -0 -12 -8 -8 -5 -6 -6 -7 -7 -6 -6 -5 -6 nan nan nan nan nan nan nan nan nan nan nan nan nan nan nan nan nan nan nan -4 -11 -11 -22 nan nan -40 -40 -3 -0 -0 -0 -0 -0 -0 -0 -0 -0 -0 -0 -0 -0 -0 -0 -0 -0 -0 -0 -0 -0 -0 -0 -0 -0 -0 -0 -3 -12 -12 -27
-0 -0 -0 -0 -0 -0 -0 -0 -0 -0 -0 -0 -0 -0 -0 -10 -7 -7 -5 -7 -7 -8 -4 -3 -3 -4 -6 nan nan nan nan nan nan nan nan nan nan nan nan nan nan nan nan nan nan nan nan nan nan nan nan nan nan nan -31 -0 -0 -0 -0 -0 -0 -0 -0 -0 -0 -0 -0 -0 -0 -0 -0 -0 -0 -0 -0 -0 -0 -0 -0 -0 -0 -1 -8 -20 -20 -32
-0 -0 -0 -0 -0 -0 -0 -0 -0 -0 -0 -0 -0 -0 -0 -8 -10 -10 -9 -10 -10 -9 -4 -3 -3 -5 -9 nan nan nan nan nan nan nan nan nan nan nan nan nan nan nan nan nan nan nan nan nan nan nan nan nan nan nan nan -32 -32 -32 -10 -0 -0 -0 -0 -0 -0 -0 -0 -0 -0 -0 -0 -0 -0 -0 -0 -0 -0 -0 -0 -0 -0 -7 -22 -34 -34 -36
-12 -12 -16 -12 -12 -12 nan nan -9 -9 -0 -0 -0 -0 -0 -11 -15 -15 -13 -14 -14 -13 -7 -6 -6 -6 -7 nan nan nan nan nan nan nan nan nan nan nan nan nan nan nan nan nan nan nan nan nan nan nan nan nan nan nan nan -51 -51 -39 -41 -18 -18 -9 -0 -0 -0 -0 -0 -0 -0 -0 -0 -0 -0 -0 -0 -0 -0 -0 -0 -0 -0 -4 -22 -31 -31 -35
nan -14 nan nan nan nan nan nan nan nan nan nan nan nan -1 -2 -8 -8 -17 -22 -22 -22 nan -14 -14 -12 nan nan nan nan nan nan -8 -8 nan nan nan nan nan nan nan nan nan nan nan nan nan -10 -10 nan nan nan nan nan -30 -22 -22 -36 -28 -21 -21 -22 -0 -0 -0 -0 -0 -0 -0 -0 -0 -0 -0 -0 -0 -0 -0 -0 -0 -0 -0 -0 -10 -15 -15 -14
-8 -9 -22 nan nan nan nan nan nan nan nan nan -22 -22 -22 -15 -3 -3 -12 -21 -21 -24 nan nan nan nan nan nan nan nan nan nan -1 -1 -15 nan nan nan nan nan nan nan nan nan nan nan nan nan nan nan nan nan -27 -27 -28 -20 -20 -21 -29 -18 -18 -15 -6 -10 -10 -14 -9 -6 -7 -7 -0 -0 -0 -0 -0 -0 -0 -0 -0 -0 -0 -1 -8 -22 -22 -18
-12 -12 -14 -25 -25 nan nan nan nan nan nan -19 -19 -19 -20 -20 -22 -22 -15 -18 -18 -23 -29 nan nan nan nan nan nan nan nan nan -2 -2 -7 nan nan nan nan nan nan nan nan nan nan nan nan nan nan nan nan -23 -28 -28 -31 -29 -29 -31 -51 -26 -26 -18 -19 -14 -14 -11 -20 -21 -35 -35 -28 -27 -6 -6 -3 -1 -1 -1 -1 -3 -3 -5 -9 -27 -27 -31
-11 -8 -12 -20 -20 -20 -19 -20 nan nan -19 -17 -23 -23 -21 nan nan nan -22 -20 -20 -24 nan nan nan nan nan nan nan nan nan nan -13 -13 -7 nan nan nan nan nan nan nan nan nan nan nan nan -14 -14 -10 -11 -14 -22 -22 -31 nan nan -40 -46 -32 -32 -29 -31 -35 -35 -20 -14 -23 -32 -32 -44 -51 -44 -44 -25 -9 -2 -2 -1 -2 -2 -4 -8 -11 -11 -18
-11 -9 -9 -13 -13 -12 -15 -12 -15 -15 -15 -22 nan nan nan nan nan nan nan nan nan -18 -14 nan nan nan nan nan nan nan nan nan nan nan -11 nan nan nan nan nan nan nan nan nan nan nan nan nan nan -9 -7 -10 -16 -16 -24 -38 -38 -38 -38 -34 -34 -38 -39 -35 -35 -25 -20 -17 -17 -17 -22 -30 -35 -35 -32 -1 -0 -0 -0 -1 -1 -4 -4 -5 -5 -10
-8 -8 -9 -13 -13 -13 -9 -17 nan nan -18 -23 nan nan nan nan nan nan nan nan nan nan nan nan nan nan -14 nan nan nan nan nan nan nan nan nan nan nan nan nan nan nan nan nan nan nan nan nan nan -7 -10 -14 -21 -21 -23 -31 -31 -44 nan -38 -38 -40 -50 -37 -37 -24 -28 -12 -10 -10 -9 -11 -14 -14 -14 -0 -0 -0 -0 -0 -0 -5 -3 -4 -4 -7
-6 -5 -8 -12 -12 -14 -14 -16 -14 -14 -15 -19 nan nan nan nan nan nan nan nan nan nan nan nan nan nan -14 -8 -22 -22 nan nan nan nan nan nan nan nan nan nan nan nan nan nan nan nan nan nan nan -14 -13 -17 -10 -10 -14 -23 -23 -35 -39 -40 -40 nan nan nan nan -37 -30 -21 -12 -12 -8 -9 -10 -10 -10 -10 -14 -14 -16 -26 -26 -17 -9 -9 -9 -6
-7 -9 -10 -8 -8 -11 -13 -14 nan nan -21 nan nan nan nan nan nan nan nan nan nan nan nan nan nan nan nan nan -14 -14 -15 nan nan nan nan nan nan nan nan nan nan nan nan nan nan nan nan -21 -21 -14 -10 -14 -16 -16 -24 -27 -27 -31 nan nan nan nan nan nan nan -39 -33 -31 -12 -12 -15 -22 -16 -16 -10 -9 -9 -9 -11 -20 -20 -19 -25 -23 -23 -7
-6 -9 -8 -4 -4 -10 -16 -14 nan nan nan nan -16 -16 nan nan nan nan nan nan nan nan nan nan nan nan nan nan nan nan nan nan nan nan nan nan nan nan nan nan nan nan nan nan nan -25 -24 -13 -13 -11 -7 -16 -16 -16 -20 -29 -29 -27 -14 -21 -21 -24 -30 -45 -45 nan nan nan -33 -33 -28 -31 -18 -18 -11 -9 -8 -8 -8 -13 -13 -17 -21 -26 -26 -16
-3 -7 -8 -8 -8 -9 -10 -22 nan nan nan nan nan nan nan nan nan nan nan nan nan nan nan nan nan nan nan nan nan nan nan nan nan nan nan nan nan nan nan nan nan nan -23 -15 -15 -21 -19 -16 -16 -10 -13 -16 -7 -7 -10 -18 -18 -6 -3 -12 -12 -21 -26 -35 -35 nan nan nan nan nan -27 -21 -17 -17 -16 -13 -16 -16 -14 -16 -16 -18 -18 -30 -30 -25
-0 -3 -7 -13 -13 nan nan nan -22 -22 nan nan nan nan nan nan nan nan nan nan nan nan nan nan nan nan nan nan nan nan nan nan nan nan nan nan nan nan nan nan nan nan -22 -18 -18 -17 -9 -8 -8 -9 -12 -14 -9 -9 -14 -16 -16 -10 -5 -13 -13 -18 -16 -20 -20 nan nan nan nan nan -26 -20 -19 -19 -18 -19 -21 -21 -16 -18 -18 -11 -10 -18 -18 -22
-3 -6 -11 nan nan -21 -21 -21 -15 -15 nan nan nan nan nan nan nan nan nan nan nan nan nan nan nan nan nan nan nan nan nan nan nan nan nan nan nan nan nan nan nan nan nan nan nan -9 -7 -4 -4 -9 -12 -12 -11 -11 -9 -10 -10 -13 -12 -11 -11 -12 -15 -24 -24 nan nan nan nan nan nan nan -27 -27 -24 -20 -20 -20 -15 -7 -7 -2 -3 -8 -8 -9
-5 -9 -15 nan nan -18 -12 -11 nan nan nan nan nan nan nan nan nan nan nan nan nan nan nan nan nan nan nan nan nan nan nan nan nan nan nan nan nan nan nan nan nan nan nan nan nan -7 -9 -5 -5 -10 -12 -13 -11 -11 -7 -10 -10 -12 -17 -15 -15 -13 -11 -18 -18 -34 nan nan nan nan nan nan nan nan -31 -25 -24 -24 -19 -12 -12 -13 -9 -11 -11 -9
-12 -14 -13 nan nan -10 nan nan nan nan nan nan nan nan nan nan nan nan nan nan nan nan nan nan nan nan nan nan nan nan nan nan nan nan nan nan -9 -9 nan nan nan nan nan -15 -15 -8 -7 -7 -7 -9 -12 -10 -9 -9 -7 -9 -9 -9 -8 -10 -10 -13 -20 -25 -25 -27 -24 nan nan nan nan nan nan nan -34 -30 -29 -29 -29 -27 -27 -25 -24 -22 -22 -19
-11 -10 -11 -10 -10 nan -6 nan nan nan nan nan nan nan nan nan nan nan nan nan nan nan nan nan nan nan nan nan nan nan nan nan nan nan nan nan nan nan nan nan nan nan nan -12 -12 -12 -11 -8 -8 -7 -8 -7 -7 -7 -9 -8 -8 -8 -9 -7 -7 -12 -18 -26 -26 -31 -29 -37 nan nan nan nan nan nan nan nan -30 -30 -32 -33 -33 -28 -30 -26 -26 -23
-11 -10 -12 -12 -12 nan nan nan nan nan nan nan nan nan nan nan nan nan nan nan nan nan nan nan nan nan nan nan nan nan nan nan nan nan nan nan nan nan nan nan nan nan nan nan nan -19 -10 -10 -10 -8 -6 -5 -5 -5 -9 -10 -10 -9 -9 -11 -11 -12 -13 -18 -18 -30 -44 -42 nan nan nan nan nan nan nan nan nan nan nan -29 -29 -30 -29 -26 -26 -23
-6 -6 -9 nan nan nan nan nan nan nan nan nan nan nan nan nan nan nan nan nan nan nan nan nan nan nan nan nan nan nan nan nan nan nan nan nan nan nan nan nan nan nan -23 -14 -14 -9 -11 -12 -12 -10 -10 -6 -4 -4 -6 -9 -9 -10 -10 -11 -11 -10 -11 -13 -13 -30 -47 nan nan nan nan nan nan nan nan nan nan nan -21 -22 -22 -23 -26 -26 -26 -24
-7 -7 -8 nan nan nan nan nan nan nan nan nan nan nan nan nan -0 -0 nan nan nan nan nan nan nan nan nan nan nan nan nan nan nan nan nan nan nan nan nan nan nan nan nan -18 -18 -16 -12 -11 -11 -9 -8 -5 -4 -4 -5 -7 -7 -10 -10 -13 -13 -11 -9 -11 -11 -24 nan nan nan nan nan nan nan nan nan -14 -10 -10 -10 -15 -15 -22 -27 nan nan nan
-8 -7 nan nan nan nan nan nan nan nan nan nan nan nan nan nan nan nan nan nan nan nan nan nan nan nan nan nan nan nan nan nan nan nan nan nan nan nan nan nan nan nan nan nan nan nan nan -18 -18 -11 -3 -2 -2 -2 -3 -5 -5 -8 -10 -11 -11 -11 -10 -13 -13 -22 nan nan nan nan nan nan nan nan nan -10 -6 -6 -7 -10 -10 -16 -25 nan nan nan
-1 -5 nan nan nan nan nan nan nan nan nan nan nan nan nan nan nan nan nan nan nan nan nan nan nan nan nan nan nan nan nan nan nan nan nan nan nan nan nan nan nan nan nan nan nan nan nan nan nan nan -9 -0 -0 -0 -2 -3 -3 -4 -5 -9 -9 -12 -11 -14 -14 -18 -19 nan nan nan nan nan nan nan -16 -8 -5 -5 -5 -7 -7 -13 nan nan nan nan
Wind_Speed
5 6 6 7 7 7 7 8 8 9 9 9 8 8 9 10 10 11 12 12 12 11 11 11 11 12 13 16 19 21 23 24 25 25 25 25 26 26 26 26 26 26 26 26 26 26 26 26 26 27 27 27 27 28 28 29 29 29 29 28 28 27 27 27 27 26 26 26 26 26 27 27 27 27 26 26 26 25 24 24 23 22 21 21 21 21
5 5 5 6 6 6 7 8 8 8 9 10 10 10 10 11 11 10 11 11 11 11 10 10 11 11 12 14 17 20 22 24 24 25 25 26 26 26 26 26 26 26 26 26 26 26 26 26 26 26 26 26 27 27 27 28 28 29 29 29 29 28 28 27 27 27 27 26 26 26 26 26 26 26 26 26 27 27 27 27 26 25 25 24 24 24
6 6 5 5 5 6 7 8 8 7 9 10 10 11 12 12 11 10 9 10 10 10 10 10 10 11 12 12 16 19 21 23 24 25 25 25 26 26 26 26 26 26 26 26 26 26 26 26 26 26 26 26 27 27 27 28 28 28 29 29 29 29 29 28 28 28 27 27 27 26 26 25 25 26 26 27 27 28 28 28 28 27 27 27 27 27
7 6 6 5 5 5 6 7 8 8 9 10 11 11 12 11 10 10 9 9 9 10 10 10 10 10 10 10 13 16 20 22 24 24 25 25 25 25 26 26 26 26 27 27 27 27 27 27 27 27 27 27 27 28 28 28 28 29 29 29 29 29 29 29 29 28 28 28 27 26 26 26 26 26 27 27 27 28 28 28 28 28 28 28 28 28
6 6 6 6 5 6 6 7 8 8 9 9 10 10 10 9 9 9 9 9 9 9 9 9 10 10 9 9 11 15 19 22 23 24 24 25 25 25 25 26 26 27 27 27 27 28 28 28 28 28 28 28 28 28 28 29 29 29 29 29 29 29 29 29 29 29 29 28 28 27 27 27 27 27 27 28 28 28 28 28 28 29 29 29 29 29
7 6 6 6 6 6 6 7 7 8 8 8 8 8 8 8 8 8 8 8 9 9 8 8 8 9 9 10 12 15 18 20 22 23 23 24 24 25 25 26 26 27 27 28 28 28 28 28 29 29 29 29 29 29 29 29 29 29 29 29 29 29 29 29 29 29 29 28 28 28 28 28 28 28 28 28 28 28 28 29 29 29 29 29 29 29
6 6 6 6 6 6 6 6 7 7 7 7 7 7 8 7 7 7 7 8 8 8 8 8 8 8 9 10 11 14 15 17 19 20 21 23 24 24 25 26 26 27 27 28 28 28 29 29 29 29 29 29 29 29 29 29 29 29 29 29 29 29 29 29 29 29 29 29 28 28 28 28 28 28 28 28 28 28 29 29 29 29 29 29 29 29
7 7 6 6 6 6 6 6 6 6 6 7 7 8 8 7 7 7 7 7 7 7 7 7 7 7 7 7 9 10 11 13 14 15 17 19 20 22 23 24 26 27 27 28 28 29 29 29 29 29 30 30 30 30 30 29 29 29 29 29 29 29 29 29 29 29 29 29 28 28 28 28 28 28 28 28 28 28 29 29 29 29 29 29 29 29
8 8 7 7 7 7 7 6 6 5 6 6 7 8 9 9 8 8 7 7 6 5 5 6 6 7 7 6 7 9 10 11 12 12 14 14 15 17 20 22 24 25 27 27 28 29 29 29 29 30 30 30 30 29 29 29 29 29 28 28 28 28 29 29 29 29 29 29 28 28 29 29 29 29 28 28 28 28 28 29 29 29 30 30 30 30
7 8 7 7 6 6 7 7 6 6 5 6 7 7 8 9 10 9 9 7 6 5 5 6 7 8 8 7 7 8 10 12 14 16 17 17 18 20 20 21 21 22 25 27 28 28 29 29 29 29 29 29 29 29 29 29 28 28 28 27 27 27 28 28 28 28 28 28 28 28 28 28 28 28 27 27 26 26 26 26 27 27 28 28 29 29
7 7 7 6 6 5 6 7 6 6 6 6 6 6 6 7 8 9 10 10 8 7 6 6 7 8 9 9 8 8 9 10 12 14 16 18 20 21 21 21 21 22 24 25 26 27 27 28 28 28 28 28 28 28 28 28 27 27 27 27 27 27 27 27 28 28 28 28 28 27 27 26 25 24 23 22 22 21 21 21 22 22 23 25 26 27
7 6 5 6 6 6 6 6 5 5 5 6 6 6 6 5 5 7 9 11 11 10 9 7 6 6 7 8 8 8 9 9 10 10 11 12 13 14 15 15 16 18 19 20 21 22 24 25 26 26 26 27 27 27 27 26 26 27 27 27 27 27 27 28 28 28 28 28 28 26 25 23 21 20 19 19 18 17 17 17 18 18 19 21 22 24
6 5 5 6 6 6 5 5 5 5 5 5 6 7 7 6 5 6 8 10 11 10 10 9 8 7 6 6 6 7 8 8 9 9 8 8 7 8 8 9 10 10 11 12 13 14 18 21 23 23 24 24 25 26 26 26 26 27 27 27 28 28 28 29 29 29 29 29 28 27 25 24 22 21 20 20 19 18 18 18 18 18 18 19 20 22
6 6 6 7 7 6 6 6 6 6 6 5 6 7 7 7 7 7 9 10 10 9 9 10 10 8 6 6 6 6 6 7 7 8 8 7 6 6 6 8 9 9 9 10 10 11 14 15 16 17 20 21 22 23 23 24 26 27 27 28 29 29 29 29 30 30 30 30 30 29 28 27 26 25 25 24 23 22 21 21 20 20 19 20 20 21
7 7 7 8 7 7 6 6 7 7 6 6 6 7 8 8 8 9 9 10 10 9 10 11 11 10 7 6 5 5 6 6 6 7 8 7 6 5 6 8 9 10 9 10 11 12 13 12 12 12 14 17 18 20 22 23 25 27 28 29 30 30 30 30 30 30 31 31 31 31 31 30 30 29 28 27 26 26 25 24 23 22 22 21 21 21
7 7 8 8 8 7 6 6 7 7 7 7 7 7 8 9 8 8 9 10 10 9 9 11 11 11 8 5 4 4 5 5 6 7 9 9 7 6 7 8 10 11 10 11 11 11 11 11 11 12 13 16 20 23 25 26 27 28 29 30 30 31 31 31 31 31 31 31 32 32 32 32 32 31 30 29 28 28 27 26 25 25 24 23 23 22
7 7 8 8 8 8 7 6 6 7 8 8 7 7 8 8 8 8 9 9 9 9 8 9 10 10 9 7 5 3 4 5 6 8 10 11 10 8 7 7 10 12 12 12 11 11 11 11 11 11 12 17 21 25 26 27 28 29 30 31 31 31 32 32 32 32 32 32 32 32 33 33 33 32 32 31 30 29 28 28 27 26 26 25 24 23
7 7 7 8 8 7 7 6 6 7 7 8 8 8 8 8 8 8 9 9 9 9 9 9 9 9 9 9 6 4 4 6 8 10 12 13 11 9 7 8 11 13 13 13 12 11 11 11 11 12 14 20 24 26 28 29 29 30 31 31 32 32 32 32 32 33 33 33 33 33 33 33 33 33 32 32 31 30 29 29 28 27 27 26 25 25
8 7 7 8 8 7 7 7 7 8 8 8 8 9 9 9 9 9 9 9 9 9 10 10 10 9 9 10 9 7 6 8 9 11 12 13 13 10 8 9 11 13 13 13 12 11 11 11 13 16 20 23 26 27 28 29 30 31 31 32 32 32 33 33 33 33 33 33 33 33 33 33 33 33 32 32 32 31 30 30 29 28 28 27 27 26
8 7 7 7 8 9 9 8 8 8 9 9 9 9 9 9 10 10 9 9 9 9 9 10 11 11 10 11 11 9 7 9 10 11 12 14 14 12 9 10 12 13 13 12 11 11 11 11 12 15 19 22 25 27 28 29 30 30 31 31 32 32 33 33 33 33 33 33 33 33 33 33 33 32 32 32 32 31 31 31 30 29 29 28 28 27
9 9 8 8 8 9 8 8 9 9 10 10 9 9 9 9 9 9 9 9 10 10 10 10 11 11 10 11 11 10 9 9 10 11 11 12 12 10 8 9 11 13 13 12 11 10 11 11 10 11 14 20 23 26 27 28 29 30 31 31 32 32 33 33 33 33 33 33 33 33 33 33 33 33 32 32 32 32 31 31 31 30 30 29 29 28
9 10 10 10 9 9 9 10 10 11 11 11 9 8 8 9 9 10 10 10 10 11 11 12 12 12 12 13 13 12 10 8 9 10 8 11 12 11 7 9 10 12 14 13 11 11 11 11 11 12 15 20 24 26 28 29 29 30 31 31 32 32 33 33 33 33 33 33 33 33 33 33 33 33 33 33 32 32 32 31 31 31 30 30 29 29
10 10 10 10 9 9 9 10 10 10 10 9 9 9 7 8 9 10 10 10 11 12 13 13 12 12 12 12 12 11 9 8 7 7 7 11 12 11 8 9 10 12 13 12 12 11 11 11 11 13 16 22 25 27 28 29 30 30 31 31 32 32 33 33 33 33 33 33 33 33 33 34 34 34 33 33 33 32 32 32 31 31 31 30 30 29
9 10 10 9 8 8 9 9 9 9 9 9 8 8 8 8 9 9 9 10 10 11 11 11 12 12 11 11 11 10 8 7 6 6 6 9 11 11 8 9 11 13 13 12 11 12 12 12 12 12 13 19 23 26 28 29 30 30 31 32 32 32 33 33 33 33 33 33 33 33 34 34 34 34 34 33 33 33 32 32 32 32 31 31 30 30
9 9 9 9 10 11 12 12 13 13 12 11 9 9 9 10 11 11 10 9 9 10 10 11 12 12 11 11 11 10 8 7 7 6 6 8 10 11 9 9 11 13 14 12 11 11 12 13 12 12 12 16 20 24 27 28 29 30 31 31 32 32 33 33 33 33 33 33 33 34 34 34 34 34 34 34 33 33 33 32 32 32 31 31 30 30
14 14 15 17 19 22 24 24 24 23 22 18 14 12 11 11 10 10 9 9 9 10 11 12 13 12 11 10 10 9 7 7 6 6 6 7 9 11 9 8 10 12 13 12 11 11 12 13 12 12 11 13 17 21 25 27 28 30 31 31 32 32 33 33 33 33 33 33 34 34 34 34 34 34 34 34 34 33 33 33 32 32 32 31 30 29
22 23 25 26 26 27 27 27 28 28 28 25 22 18 14 12 10 10 10 9 9 10 10 11 12 12 11 10 10 9 8 7 6 6 6 7 9 11 10 8 9 11 13 12 11 11 13 13 13 12 12 12 13 16 22 25 27 29 30 31 31 32 32 33 33 33 33 33 34 34 34 34 34 34 34 34 34 34 33 33 32 32 31 30 27 24
23 23 24 25 25 25 26 26 26 26 26 26 26 24 19 13 11 11 11 9 9 9 10 11 12 12 11 11 10 10 9 8 7 6 6 7 8 9 9 9 9 10 11 11 11 12 14 14 13 13 12 12 12 14 18 21 24 26 28 29 30 31 31 31 32 32 32 33 33 34 34 34 34 34 34 34 34 34 33 33 32 31 29 25 20 16
19 20 21 22 23 23 23 23 22 23 24 24 24 22 17 12 10 10 10 9 9 10 11 11 11 11 11 11 11 10 10 8 7 7 6 7 8 9 8 9 9 9 10 10 11 11 11 11 11 11 11 12 12 12 13 16 18 20 22 25 27 28 29 29 30 30 31 32 32 33 33 33 33 33 33 33 33 33 33 33 32 29 23 19 16 14
13 15 16 17 17 18 17 16 16 17 20 22 22 20 16 11 10 10 10 9 10 10 11 11 11 11 11 11 11 11 9 7 6 6 6 7 7 8 8 10 10 9 8 8 9 9 9 9 9 9 10 12 12 11 10 11 12 13 15 18 21 23 25 27 28 29 30 31 31 32 32 32 32 32 32 32 32 32 33 33 31 26 17 14 13 13
11 11 11 11 11 10 10 10 11 12 15 17 17 16 13 11 9 9 9 9 9 10 11 11 11 11 11 10 10 9 8 6 6 7 7 6 7 8 9 10 10 9 7 7 8 9 10 8 7 8 10 11 11 10 10 10 11 11 11 13 14 16 21 24 26 27 27 28 29 30 31 31 31 31 31 31 31 31 32 33 31 25 16 14 13 13
10 10 10 9 8 8 8 8 9 9 10 11 11 11 11 11 10 9 9 9 9 9 10 11 11 11 11 10 10 10 8 8 8 9 9 7 7 8 9 10 11 10 8 7 8 9 10 9 7 7 8 10 10 10 11 11 11 11 11 11 12 13 18 20 22 22 22 24 26 27 28 29 29 30 30 30 30 30 31 33 31 25 17 14 13 12
10 9 9 8 8 8 7 8 8 8 8 8 9 9 9 10 10 10 9 9 9 9 10 11 11 12 12 12 12 11 10 10 11 11 11 8 7 8 8 10 11 11 10 9 9 9 10 10 10 9 9 9 10 10 11 12 12 11 11 11 11 12 15 16 17 17 17 19 20 22 24 25 26 27 28 28 28 29 30 31 30 26 20 14 12 11
10 10 9 9 8 8 8 8 8 9 9 8 9 9 9 9 9 10 10 9 9 9 10 10 11 12 12 12 12 12 12 11 12 13 13 10 8 8 9 11 12 12 11 11 10 10 10 12 12 11 9 9 9 10 10 11 12 12 11 11 11 12 12 12 13 13 14 14 14 15 17 18 20 22 23 24 25 26 27 28 28 26 23 16 13 11
9 10 9 9 8 8 9 9 9 9 9 9 9 9 9 9 9 9 9 10 10 9 9 10 11 11 12 12 13 13 13 13 13 14 14 12 10 9 11 11 11 11 11 12 11 10 10 12 13 13 11 11 10 9 9 10 11 11 11 11 11 11 11 11 11 12 13 13 13 12 12 13 14 15 17 19 21 22 24 25 25 25 25 21 18 14
9 9 9 9 9 9 9 9 9 9 9 9 8 8 9 9 9 9 10 10 10 11 12 11 12 12 12 13 14 15 15 14 15 15 16 14 12 11 11 11 11 12 12 13 12 11 11 13 14 14 14 13 11 9 8 9 10 10 10 11 11 11 11 11 11 11 12 12 12 12 11 11 11 12 13 17 20 22 24 24 25 25 25 25 23 20
9 9 9 9 9 9 9 9 9 9 9 9 9 9 9 9 10 10 10 11 11 12 13 14 14 14 15 15 15 16 16 15 16 17 17 15 14 13 13 12 12 13 13 13 12 12 12 13 14 14 13 13 11 9 8 9 9 9 9 10 10 10 10 11 11 11 11 12 12 12 12 11 11 11 12 16 19 21 22 24 24 24 26 26 25 24
9 9 9 8 8 8 9 9 9 9 9 9 9 10 10 11 11 12 12 12 13 13 14 14 14 16 19 20 20 19 19 20 20 21 21 18 15 14 14 14 14 14 13 14 13 13 13 14 14 13 12 12 12 12 11 10 10 9 9 10 10 10 10 10 11 11 11 12 13 14 14 13 12 11 11 12 13 13 14 15 16 19 21 21 22 23
9 9 9 9 9 9 9 9 9 9 9 10 10 11 11 12 13 13 12 12 13 14 14 14 14 15 18 20 22 22 22 22 22 22 22 19 17 15 15 15 15 14 14 13 14 14 14 14 14 13 12 12 12 12 12 11 11 11 10 10 10 10 10 10 11 11 11 12 13 14 14 13 11 10 10 9 9 9 10 10 11 13 14 13 14 16
9 9 9 9 9 9 9 9 10 10 10 11 12 12 12 12 12 12 12 12 12 13 14 14 14 14 15 16 18 19 19 19 19 19 19 18 16 15 14 14 14 14 14 13 13 13 14 14 14 14 14 13 13 12 11 11 11 12 12 11 9 9 10 10 10 10 10 11 11 12 12 12 12 12 11 10 9 9 9 8 9 10 11 10 9 9
10 9 9 9 9 9 10 10 10 10 11 11 11 11 11 11 11 11 11 11 11 12 12 13 13 14 14 14 15 16 17 17 18 18 17 18 17 16 14 14 14 14 13 13 13 13 14 14 14 14 14 14 14 14 13 13 14 14 15 13 11 10 10 11 10 10 10 10 11 11 12 13 13 13 12 12 11 10 9 9 10 11 11 10 9 8
11 10 10 9 9 9 9 10 10 11 11 11 11 11 10 10 11 11 11 12 11 11 11 12 13 13 14 14 14 14 15 15 16 17 17 18 17 16 15 14 13 13 13 13 14 14 14 14 15 15 14 14 14 13 13 14 14 14 14 14 13 12 12 12 10 9 10 10 11 11 12 12 12 12 13 12 11 11 10 10 11 12 12 11 10 9
10 10 9 9 9 10 10 11 11 11 10 10 10 10 10 10 11 11 12 12 13 13 13 12 13 13 14 14 14 13 13 14 15 16 16 16 16 16 15 15 14 13 13 13 14 14 14 15 15 15 15 14 14 15 15 14 14 13 14 13 13 11 8 8 8 8 9 10 10 10 10 10 11 11 11 11 11 10 10 11 13 13 13 11 10 9
10 9 9 9 9 10 10 10 10 10 10 11 11 11 11 11 12 12 12 12 13 13 13 12 13 13 14 15 15 14 13 12 13 14 14 14 14 14 14 15 15 14 14 14 13 13 13 14 14 14 14 14 14 15 15 14 14 13 13 13 13 12 11 9 8 9 10 10 9 9 9 9 9 10 10 11 10 10 10 10 10 10 11 11 10 9
9 9 9 9 10 10 10 10 10 10 11 11 11 11 11 12 12 12 12 12 13 13 13 13 13 13 13 14 14 14 13 12 11 10 10 12 14 15 14 13 13 13 13 13 13 13 13 14 14 14 13 13 14 15 15 15 14 14 14 13 13 13 13 12 11 11 11 11 10 10 9 8 7 8 9 10 10 10 10 10 10 10 10 10 9 9
9 9 10 10 10 10 11 11 11 11 11 11 12 12 12 12 12 12 12 13 14 14 14 13 12 12 14 14 14 13 13 12 12 10 9 10 10 10 11 11 11 11 12 12 13 14 14 14 14 14 14 14 14 15 15 15 14 14 14 13 13 13 13 12 12 11 11 11 11 10 10 8 8 8 8 10 10 11 11 11 11 11 11 10 10 10
9 10 10 10 10 11 11 11 11 11 12 12 12 12 12 12 12 12 13 13 14 14 14 13 13 13 15 15 14 14 14 14 13 12 11 10 9 9 10 10 11 12 12 12 13 14 15 15 15 15 15 15 15 15 14 14 14 14 14 13 12 12 12 11 11 10 10 10 10 9 8 7 7 8 9 10 10 11 11 11 11 11 11 11 11 11
10 10 11 11 11 11 11 11 11 12 12 12 12 12 12 12 13 14 13 13 13 13 14 13 14 14 15 15 15 15 15 15 14 13 12 11 10 10 9 9 10 11 12 13 14 15 15 16 17 17 16 15 15 15 14 14 14 14 13 13 12 12 12 11 10 9 9 10 10 10 8 7 8 9 9 10 10 11 11 11 11 11 11 10 11 11
10 10 11 11 11 11 11 11 12 12 13 13 13 13 12 13 15 15 14 13 13 13 13 14 15 15 15 15 15 15 15 15 14 13 12 12 11 10 10 10 10 10 11 12 13 14 14 15 17 17 16 16 15 15 15 15 14 14 13 12 12 12 11 11 10 10 9 10 10 10 8 8 8 9 9 10 11 12 12 12 12 11 11 10 10 11
10 10 11 11 11 11 12 12 12 13 13 14 14 14 13 13 13 13 13 13 13 13 13 14 15 15 16 15 15 15 15 14 14 13 13 11 11 10 11 11 11 11 11 11 11 11 11 11 13 15 17 18 17 17 15 15 14 13 13 12 12 11 11 11 10 10 9 10 10 9 8 8 8 8 8 10 11 13 13 12 12 12 11 10 10 11
10 10 10 11 11 12 12 12 12 13 14 14 15 14 14 14 13 13 12 13 13 13 14 14 14 15 15 15 15 15 15 14 14 14 13 12 11 11 11 11 11 11 11 11 11 10 9 9 9 10 13 17 19 19 15 14 13 13 12 12 11 10 10 11 10 10 11 10 9 8 8 8 8 8 9 9 11 12 12 12 13 12 11 10 10 11
Wind_Direction
309 310 313 315 312 306 302 302 302 302 303 305 308 309 310 309 308 305 305 303 301 298 296 293 291 290 290 291 292 293 294 295 296 296 296 297 297 297 297 297 297 297 297 297 297 297 296 296 295 295 295 295 295 296 296 297 297 297 297 296 296 295 294 293 293 292 292 291 290 290 289 289 288 288 288 289 289 289 288 286 284 281 278 276 273 271
302 302 303 304 302 299 296 299 300 301 304 306 307 307 307 305 303 301 300 297 294 292 290 289 289 288 287 288 290 292 293 293 294 295 295 295 296 296 296 297 297 297 297 297 297 296 296 296 296 295 295 295 295 295 295 296 296 297 297 296 296 295 295 294 293 292 292 291 290 290 289 288 287 287 286 286 287 286 286 285 284 282 280 278 276 274
299 297 296 296 295 294 296 300 301 301 301 302 302 302 302 300 299 297 295 293 290 288 286 286 287 287 286 286 288 290 290 291 292 293 294 294 295 295 296 296 297 297 297 297 298 298 298 297 297 297 297 297 297 296 296 296 296 296 296 296 296 295 295 294 293 293 292 291 290 290 289 287 286 285 284 283 283 283 282 282 281 280 279 278 276 275
296 296 297 298 295 292 292 298 300 300 298 297 296 296 295 294 292 290 288 288 287 286 284 284 284 284 285 285 286 287 288 289 290 291 292 293 294 295 296 297 297 298 298 298 298 299 299 298 298 298 298 297 297 296 296 295 295 295 294 294 294 294 294 293 293 292 291 290 290 289 288 287 285 284 283 281 281 280 279 279 278 277 276 276 275 273
295 296 299 300 298 294 293 295 297 297 296 293 292 291 290 287 285 285 285 284 284 284 284 283 283 283 283 284 284 285 286 288 290 291 292 294 295 296 297 298 298 298 298 298 298 298 298 297 297 297 296 296 295 295 294 294 293 293 292 292 292 292 291 291 291 290 290 289 288 287 286 285 284 283 282 281 280 279 278 277 276 275 275 274 273 272
296 296 298 298 297 297 298 297 297 296 295 292 289 286 284 282 282 283 284 285 285 285 285 284 283 282 281 282 283 285 287 289 291 293 295 296 297 297 298 297 297 297 297 296 296 296 296 295 295 294 294 294 293 293 292 292 291 291 291 290 290 290 289 289 289 288 288 287 286 285 284 283 282 282 281 280 280 279 278 277 276 275 274 273 272 271
295 294 296 295 294 294 295 294 294 294 294 294 292 289 285 283 283 283 283 284 285 286 285 284 282 280 280 280 284 287 290 293 295 296 297 297 297 296 296 296 295 295 295 294 294 294 293 293 293 292 292 291 291 291 290 290 290 289 289 289 289 288 288 288 288 287 287 286 285 284 283 282 281 280 279 278 278 277 277 276 275 274 273 272 271 270
296 295 296 294 294 292 290 289 289 291 292 294 295 295 294 292 288 286 284 283 283 284 285 285 284 282 283 285 290 293 295 296 297 297 297 296 295 294 294 293 293 293 293 292 292 291 291 291 290 290 290 289 289 289 288 288 288 288 288 288 287 287 287 287 287 287 286 285 284 283 282 281 279 278 277 276 275 275 274 274 274 273 273 272 271 270
294 296 295 293 293 294 293 290 288 288 289 291 294 296 299 298 296 292 288 286 283 283 287 291 292 292 291 293 296 297 296 295 294 294 293 293 292 292 292 292 292 291 291 290 290 289 289 288 288 288 288 288 287 287 287 287 287 287 287 287 287 287 287 287 286 286 286 285 284 283 281 280 279 277 275 274 272 272 271 271 271 271 271 270 270 269
288 290 292 290 290 290 292 293 293 291 287 287 288 291 294 297 298 298 296 293 291 290 292 295 298 298 297 296 295 295 294 292 291 290 290 290 290 291 290 290 290 289 288 288 287 287 287 286 286 286 286 286 286 286 286 287 287 287 287 287 287 287 287 287 287 287 286 285 284 283 281 280 278 277 276 274 273 272 271 270 270 270 270 270 269 269
289 288 289 289 288 287 286 290 293 295 292 289 287 285 284 290 296 299 300 300 300 299 297 295 295 297 298 298 296 294 293 291 290 290 289 289 289 290 289 288 287 286 286 286 285 285 285 285 285 285 285 286 286 286 286 286 287 287 287 287 287 288 288 288 288 288 288 287 286 285 284 282 281 281 281 280 279 279 278 276 276 275 275 273 272 271
291 291 291 291 291 291 289 289 291 292 294 293 293 292 289 289 293 298 299 300 301 302 301 296 292 291 292 296 297 296 293 290 289 289 288 288 287 287 287 286 285 285 284 284 284 284 284 284 285 285 285 285 285 285 286 286 286 287 287 287 288 288 288 288 288 288 289 289 289 288 287 287 286 286 287 287 288 288 288 287 288 287 285 284 281 278
290 291 291 291 292 293 294 295 295 295 295 295 296 296 297 297 297 295 294 295 296 299 300 297 294 290 288 289 291 294 292 289 288 287 286 286 286 285 285 284 283 283 284 283 282 282 283 284 284 284 284 284 285 285 285 285 285 286 286 286 286 286 286 287 287 288 288 289 289 289 289 289 288 288 288 287 287 288 287 288 288 289 289 289 288 286
292 293 292 292 292 293 294 295 296 296 295 294 292 292 293 297 298 296 293 292 293 295 297 295 294 293 292 289 287 286 288 288 287 286 285 283 283 284 286 285 284 284 284 284 282 281 282 283 283 283 283 283 284 284 284 284 284 283 283 283 283 284 284 284 285 285 286 287 287 287 287 287 287 286 286 285 285 284 284 283 283 284 284 285 286 286
294 295 294 292 292 292 293 294 293 292 291 291 291 292 294 295 296 296 295 295 297 298 299 296 293 292 289 288 287 285 285 286 288 289 288 285 284 285 288 288 286 285 283 283 282 281 281 281 281 281 281 280 279 279 280 280 280 281 281 281 281 281 282 282 282 283 284 284 285 285 285 285 285 284 284 283 283 282 282 281 280 279 279 279 280 281
291 291 290 290 289 289 289 289 290 291 292 293 294 296 297 297 297 297 297 298 300 302 302 301 299 296 290 285 282 284 286 288 289 292 293 290 288 288 290 289 287 285 283 281 281 282 282 279 278 277 277 277 278 278 278 279 279 279 279 280 280 280 280 280 280 281 281 282 282 283 283 283 283 283 283 282 281 281 280 279 278 277 276 275 275 275
285 284 284 286 286 287 288 289 290 292 295 296 297 296 296 297 299 300 299 300 302 302 301 301 301 300 299 295 289 285 295 297 296 294 293 290 289 289 288 287 286 285 284 281 281 281 282 280 278 276 276 276 277 277 278 278 278 278 278 278 279 279 279 279 279 279 279 280 280 280 281 281 281 282 281 281 280 280 279 278 277 276 275 273 272 271
280 281 282 284 287 290 295 296 296 296 298 298 298 297 295 296 298 299 299 299 299 298 297 294 292 292 297 298 300 304 313 303 298 295 292 289 288 289 289 284 283 282 282 280 279 279 279 277 275 274 274 276 276 277 277 277 278 278 278 278 278 278 278 277 277 278 278 278 278 278 278 279 279 280 280 280 279 279 278 277 276 275 274 272 271 269
283 285 288 291 294 297 299 299 299 300 300 300 301 301 300 298 297 296 294 293 291 291 291 289 287 286 288 290 295 302 309 300 296 293 291 289 289 289 289 284 281 280 279 279 278 278 277 275 274 274 275 277 277 278 278 278 278 278 277 277 277 277 277 276 276 276 276 276 276 276 276 276 277 277 278 278 278 278 277 276 275 274 273 272 270 268
294 295 296 300 300 299 295 294 294 296 297 299 300 299 296 295 293 291 288 288 286 285 285 285 285 285 286 286 290 296 304 300 295 291 288 286 286 287 288 284 282 280 279 278 279 280 280 278 277 277 277 277 278 278 278 278 278 278 277 277 277 277 276 276 276 275 275 275 275 275 274 275 275 275 276 276 276 276 276 275 274 273 272 271 269 268
296 293 291 293 293 292 289 288 289 291 293 295 294 291 288 289 288 287 286 287 286 285 283 282 282 283 286 287 290 294 302 298 292 287 284 283 283 284 287 285 283 282 281 281 282 282 282 281 279 278 278 279 279 279 279 279 279 279 279 278 278 277 277 276 275 275 275 274 274 273 273 273 274 274 274 274 274 274 274 273 273 272 271 270 269 267
286 284 283 282 280 279 281 285 287 289 290 289 287 284 283 286 286 286 287 287 286 284 282 280 281 282 285 285 287 290 294 288 284 282 285 283 283 284 289 288 286 285 283 285 286 286 284 282 281 280 280 281 282 282 282 281 281 281 280 280 279 278 277 277 276 275 274 274 273 273 272 272 272 272 272 272 272 272 272 272 271 270 269 268 267 266
275 277 279 278 276 275 278 282 285 286 285 282 278 276 277 280 281 283 285 284 282 282 281 281 281 281 281 282 283 285 285 280 277 278 281 283 285 288 294 292 288 285 283 285 288 289 286 284 283 283 284 284 284 284 284 283 283 282 281 281 280 279 278 277 276 275 274 274 273 272 272 271 271 271 271 271 271 271 271 270 270 269 268 267 266 265
273 274 277 277 276 275 277 281 283 284 282 279 276 274 273 274 275 276 278 278 280 282 283 285 285 284 281 282 284 285 285 284 282 280 279 280 284 288 294 294 289 285 283 285 288 289 288 285 284 284 285 284 284 284 284 283 283 282 282 281 280 280 279 278 277 276 275 274 273 272 271 271 270 270 270 270 270 270 270 269 269 268 267 266 265 264
279 279 281 281 282 283 284 285 286 287 287 286 284 282 281 281 281 280 280 281 283 286 289 290 289 288 289 290 289 288 289 288 285 283 281 281 283 285 289 290 288 286 285 286 288 288 287 285 284 283 282 282 282 283 283 282 282 282 281 281 280 280 279 278 277 276 275 274 273 272 271 271 270 270 269 269 269 269 268 268 268 267 266 265 264 262
287 287 288 288 289 289 289 289 290 291 291 291 291 291 292 291 290 290 288 288 290 291 292 290 288 288 291 291 290 289 291 289 285 282 282 284 284 285 286 286 285 284 285 287 287 286 284 283 282 281 280 281 281 281 282 281 281 281 280 280 279 279 278 277 276 275 274 274 273 272 271 271 270 270 269 269 268 268 267 267 267 266 266 265 264 262
290 289 289 289 290 290 291 291 292 292 293 294 294 295 296 296 295 292 289 290 292 293 291 290 289 290 291 289 288 288 293 293 290 285 282 282 282 283 284 285 284 284 285 285 284 283 282 282 282 283 282 281 281 280 280 280 280 279 279 279 278 277 277 276 275 274 273 273 272 272 271 271 270 269 269 268 268 267 267 266 266 266 265 264 263 262
289 288 289 290 291 292 293 294 294 295 296 296 296 296 297 296 293 290 288 292 294 292 288 287 289 291 291 289 289 289 292 290 287 283 280 277 276 278 284 286 286 285 286 286 284 282 280 281 282 283 282 281 280 279 278 278 278 278 278 278 277 277 276 275 274 273 273 272 272 271 271 270 270 269 269 268 267 267 266 265 265 265 264 263 262 260
287 288 290 292 293 295 296 296 296 296 296 295 295 295 295 292 288 287 288 292 292 289 284 284 284 286 288 289 289 288 286 284 283 283 281 277 275 277 285 287 287 286 288 289 287 283 276 275 276 279 280 279 278 277 278 278 278 279 279 279 279 279 278 277 276 275 273 272 272 271 271 270 270 269 269 268 268 267 266 265 264 263 262 260 258 257
290 292 293 294 295 295 295 294 293 292 292 293 293 293 292 288 284 283 286 287 286 283 282 282 282 284 287 290 290 288 282 281 285 289 290 283 280 281 287 286 285 285 289 292 290 285 277 271 271 275 279 280 280 280 280 280 280 281 281 281 281 281 280 279 278 276 275 273 272 271 270 270 269 269 269 268 268 267 266 264 263 262 259 256 254 253
299 298 296 295 294 292 291 289 288 289 290 290 291 290 287 283 279 277 279 279 278 278 279 281 282 283 285 288 289 288 285 288 294 298 296 286 281 282 287 286 284 283 282 285 288 289 288 282 276 276 279 282 283 282 281 281 281 280 280 280 279 279 278 278 278 277 275 273 272 271 270 269 269 268 267 267 267 266 265 264 262 261 257 253 250 250
300 298 295 294 293 291 289 288 288 288 288 287 286 284 280 278 275 274 274 274 274 275 277 279 280 281 281 280 280 281 285 291 295 296 292 284 280 280 282 283 283 283 279 274 275 281 288 289 289 286 282 282 281 281 279 278 277 277 277 276 276 276 276 277 277 276 275 274 273 272 271 270 268 267 266 265 264 263 263 262 261 259 255 250 247 247
298 295 294 294 293 291 288 288 287 286 285 283 281 279 278 276 275 275 274 273 273 274 276 278 280 281 280 277 276 276 279 285 289 291 289 284 282 281 281 280 281 282 282 274 270 270 275 282 288 289 283 278 276 276 277 276 275 275 275 275 275 276 276 277 276 276 276 275 274 273 272 271 270 268 266 265 263 262 261 260 259 257 254 250 246 245
297 295 294 293 292 290 287 286 285 284 283 282 281 280 279 279 278 277 276 275 274 273 273 276 278 280 282 280 279 277 278 280 285 288 288 284 282 281 281 280 280 282 283 278 274 272 271 275 280 285 284 278 273 272 274 275 274 273 272 272 273 274 275 275 275 275 275 274 274 274 273 272 272 271 269 267 265 263 262 261 260 258 257 254 250 247
296 295 295 294 292 291 289 287 286 285 285 284 284 283 282 282 281 280 279 277 276 274 272 272 273 275 278 280 280 280 280 281 283 285 285 282 280 280 280 278 279 280 281 278 277 276 274 274 276 278 282 281 277 271 269 272 273 272 269 268 269 271 272 272 273 273 274 273 272 271 271 271 272 272 270 268 267 265 264 263 262 261 260 258 256 254
296 295 295 294 294 293 292 291 290 289 287 287 286 285 285 284 283 282 281 280 279 277 274 272 271 270 271 273 275 277 278 280 282 282 280 278 278 278 278 276 276 277 278 277 276 275 275 275 276 276 277 279 279 276 271 270 270 270 269 267 267 268 269 269 270 271 272 272 271 270 270 269 269 269 269 269 268 268 266 265 264 263 262 261 259 257
296 295 295 294 294 294 294 293 292 292 291 291 290 289 288 287 285 284 283 280 278 277 276 274 272 269 267 267 268 270 273 276 278 278 276 275 273 273 273 273 273 273 273 275 275 275 274 276 276 275 273 273 275 278 279 276 272 269 267 267 267 267 268 268 268 269 270 270 270 270 270 268 268 267 268 269 269 269 268 266 265 264 263 261 260 257
297 296 295 295 295 295 295 295 294 294 295 295 295 293 292 289 286 284 282 279 277 275 274 272 271 269 267 266 266 266 268 271 272 273 272 270 268 267 268 271 270 269 267 270 272 273 274 275 277 277 274 272 272 275 279 279 276 272 268 267 266 265 264 264 265 266 267 268 270 270 270 270 269 269 268 269 269 269 269 267 265 264 262 261 259 257
296 296 296 297 297 297 297 296 297 297 297 296 295 294 292 289 286 283 280 278 276 273 271 270 270 269 268 267 267 267 267 269 269 270 269 267 265 263 265 268 269 268 266 266 267 268 270 271 273 274 276 276 276 275 274 273 273 273 273 271 266 262 259 259 260 261 262 264 267 269 270 270 271 270 269 268 268 268 268 268 267 265 263 263 261 259
296 296 296 298 298 298 297 297 297 298 297 296 294 292 291 289 286 284 280 279 278 276 275 273 272 271 271 270 269 269 268 268 268 268 267 265 262 261 262 265 268 269 269 266 264 264 266 268 269 269 271 274 276 277 275 272 270 271 273 272 268 262 257 256 256 256 257 258 261 264 267 268 269 269 269 267 265 263 264 266 267 267 265 264 264 264
299 298 298 299 299 298 296 296 297 296 295 295 293 292 291 290 290 289 288 286 284 282 282 280 279 277 274 272 271 270 269 269 268 267 265 263 261 260 261 263 266 269 270 268 266 265 265 267 269 270 270 272 274 274 273 271 270 270 270 268 267 266 263 259 256 254 254 254 256 258 261 264 266 267 267 265 263 260 258 260 263 264 264 261 260 261
299 299 300 300 300 299 299 297 296 295 294 293 292 292 292 293 293 294 294 293 291 289 287 287 286 285 283 279 275 272 270 269 267 266 265 264 262 261 261 263 266 268 270 271 270 268 267 268 269 271 272 273 274 274 272 271 270 268 266 266 268 269 267 259 254 251 252 253 253 254 256 259 261 263 265 264 262 259 255 254 255 257 259 257 255 254
299 299 299 299 299 299 299 298 297 297 297 295 294 293 292 293 292 292 292 292 292 291 291 290 289 288 287 286 284 280 275 271 268 267 267 265 264 264 263 263 264 266 269 271 271 271 269 266 266 268 270 271 271 272 273 273 271 268 264 264 265 267 267 259 254 250 250 250 250 250 251 254 257 260 263 263 262 261 257 255 254 254 254 255 255 255
297 298 298 299 300 300 300 300 300 299 299 297 295 294 293 293 292 291 291 291 291 291 291 290 289 287 285 285 285 284 282 277 272 269 267 266 264 263 264 264 264 264 264 267 270 272 272 268 266 266 269 269 269 269 270 271 271 268 265 262 260 259 259 261 260 257 253 251 250 249 249 251 256 260 263 265 265 264 261 259 256 255 255 256 258 259
297 298 300 301 303 303 303 301 300 299 298 295 294 294 294 294 294 293 292 291 291 291 290 291 291 289 286 286 287 287 286 285 282 277 272 269 267 265 265 265 264 264 263 263 265 268 271 271 271 271 270 269 268 267 269 270 271 270 267 263 260 257 256 258 257 256 254 253 251 250 249 250 255 260 263 264 264 264 263 262 260 259 258 258 258 259
300 301 303 303 303 303 302 301 300 299 297 296 295 295 295 296 295 293 291 291 291 291 290 290 290 289 288 289 290 291 290 289 287 285 282 277 272 268 265 264 264 263 263 263 263 263 265 268 271 273 273 270 266 265 265 267 269 269 268 264 262 260 258 256 253 251 250 250 250 250 248 249 251 256 259 261 263 263 262 260 259 258 258 258 258 258
302 303 304 304 302 301 300 300 300 300 298 297 296 296 296 296 295 293 291 290 290 291 291 291 288 286 286 288 290 291 292 291 291 291 290 288 284 279 275 271 267 265 265 264 264 263 262 263 265 267 268 269 268 266 263 264 264 265 266 264 262 260 258 255 251 248 245 246 246 247 246 247 249 251 255 259 261 262 261 258 256 255 255 256 257 258
304 304 304 303 302 301 300 301 301 300 300 299 298 296 295 294 294 293 292 292 291 291 292 291 289 287 286 287 288 288 290 292 293 294 295 293 291 288 284 280 276 272 270 268 266 265 264 262 261 261 262 264 266 267 266 264 262 262 263 263 261 259 258 256 253 248 245 243 242 241 240 241 244 248 254 258 260 261 260 258 256 253 252 253 254 257
304 303 302 302 301 301 300 301 301 300 300 299 299 297 295 294 293 293 292 292 292 291 291 290 290 289 288 288 289 289 291 291 292 294 295 295 295 293 290 288 285 282 279 274 271 269 267 263 259 256 254 256 260 263 265 264 262 260 260 259 258 257 257 256 254 249 245 242 240 237 234 236 240 244 250 256 259 261 261 260 258 255 252 251 252 254
303 301 301 301 301 300 300 301 301 301 299 299 299 298 297 296 295 293 291 291 290 290 289 289 289 289 289 290 291 292 293 294 295 295 295 296 296 294 292 291 291 289 286 281 278 275 272 268 261 254 249 249 251 256 261 262 261 259 258 255 254 254 254 254 252 248 244 242 240 236 232 235 238 241 246 252 256 260 262 261 260 257 254 252 252 254
302 301 301 300 300 300 300 300 300 299 298 299 298 298 298 298 296 294 292 291 291 291 290 289 289 289 290 291 292 294 296 297 297 297 296 297 297 295 292 292 292 291 290 287 285 282 279 278 273 265 255 250 248 249 255 258 260 259 257 253 251 249 250 250 249 247 244 242 240 237 234 235 237 239 241 247 253 258 261 261 261 259 256 255 254 254